Regional Weather Roundup
Issued by NWS

Home | Current Version | Previous Version | Graphics & Text | Print | Product List | Glossary On
Versions: 1 2 3 4 5 6 7 8 9 10 11 12 13 14 15 16 17 18 19 20 21 22 23 24 25 26 27 28 29 30 31 32 33 34 35 36 37 38 39 40 41 42 43 44 45 46 47 48 49 50
000
ASUS45 KTFX 251010
RWRMT
MONTANA REGIONAL WEATHER ROUNDUP
NATIONAL WEATHER SERVICE GREAT FALLS MT
400 AM MDT MON MAY 25 2015

NOTE: "FAIR" INDICATES FEW OR NO CLOUDS BELOW 12000 FEET WITH NO
SIGNIFICANT WEATHER AND/OR OBSTRUCTIONS TO VISIBILITY.

MTZ001>007-043-251100-
WEST OF THE DIVIDE

CITY           SKY/WX    TMP DP  RH WIND       PRES   REMARKS
KALISPELL      MOSUNNY   42  38  85 CALM      29.88S
MISSOULA       PTCLDY    45  38  76 CALM      29.92S
BUTTE          CLEAR     38  36  92 S7        29.98S
MULLAN PASS    MOCLDY    48  35  60 SE5       29.95S
DEER LODGE       N/A     39  37  93 CALM      30.00R
EUREKA           N/A     52  37  58 E7        29.87
HAMILTON         N/A     45  39  81 S5        29.92S
LIBBY            N/A     52  41  66 CALM      29.88R
RONAN            N/A     43  38  82 CALM      29.94S
THOMPSON FALLS   N/A     47  44  89 CALM      29.93S
$$

MTZ008-052>055-251100-
SOUTHWEST MONTANA

CITY           SKY/WX    TMP DP  RH WIND       PRES   REMARKS
BOZEMAN        MOCLDY    41  40  96 VRB3      29.96S
DILLON         CLEAR     41  38  89 S7        29.97R
W YELLOWSTONE  CLOUDY    39  39 100 CALM      29.99F
THREE FORKS      N/A     42  23  47 CALM      29.96R VSB 0
$$

MTZ009-010-012-014-046-048-049-054-251100-
EAST SLOPES AND CENTRAL MONTANA

CITY           SKY/WX    TMP DP  RH WIND       PRES   REMARKS
CUT BANK       CLEAR     38  36  92 W6        29.93F
GREAT FALLS    CLEAR     44  40  85 E3        29.93S
MALMSTROM AFB  CLEAR     42  41  95 S6        29.93F
HELENA         CLEAR     44  40  85 SW5       29.94S
CONRAD           N/A     39  39 100 CALM      29.96S
$$

MTZ011-013-016-021-045-047-050-051-251100-
NORTH CENTRAL MONTANA

CITY           SKY/WX    TMP DP  RH WIND       PRES   REMARKS
HAVRE          CLEAR     43  39  86 S3        29.91S
LEWISTOWN      CLOUDY    46  43  89 SE3       29.95F
N BAR RANCH    CLOUDY    48  43  81 SW7       29.97S
CHINOOK          N/A     43  43 100 CALM      29.91S
$$

MTZ017>020-022>027-061-062-251100-
NORTHEAST MONTANA

CITY           SKY/WX    TMP DP  RH WIND       PRES   REMARKS
GLASGOW        CLEAR     49  42  77 E5        29.89S
JORDAN           N/A     43  42  97 W3        29.91S
SIDNEY         PTCLDY    46  45  93 CALM      29.89S VSB 1
WOLF POINT     PTCLDY    45  42  89 CALM      29.89S
MALTA            N/A     43  37  79 CALM      29.88R
POPLAR           N/A     46  45  93 CALM      29.89S
SCOBEY           N/A     41  28  60 CALM      29.90S
$$

MTZ028>42-056>058-251100-
SOUTHCENTRAL AND SOUTHEAST MONTANA

CITY           SKY/WX    TMP DP  RH WIND       PRES   REMARKS
BAKER          CLOUDY    52  51  97 N7        29.88F
BILLINGS       MOCLDY    50  47  89 S3        29.93S
LIVINGSTON     PTCLDY    42  39  89 CALM      29.96S
MILES CITY     CLOUDY    51  49  92 NW5       29.90S
BIG TIMBER       N/A     43  43 100 SW7       29.96F
EKALAKA          N/A     50  48  92 N2        29.88S
FORSYTH          N/A     54  54 100 CALM      29.91S
LAUREL           N/A     50  43  77 CALM      29.92F
ROUNDUP          N/A     50  45  83 W5        29.85S
$$

REGIONAL REPORTS...DAKOTAS

CITY           SKY/WX    TMP DP  RH WIND       PRES   REMARKS
WILLISTON      PTCLDY    47  42  83 NE5       29.88S
MINOT          CLOUDY    54  47  77 SW5       29.85S
DICKINSON      CLOUDY    54  49  83 NE8       29.85F
BEACH          CLOUDY    50  50 100 NW6       29.90S
CROSBY         FAIR      46  46 100 CALM      29.90S
WATFORD CITY   PTSUNNY   45  45 100 CALM      29.87S FOG
BISMARCK       LGT RAIN  56  54  93 NE5       29.84F
GRAND FORKS    CLOUDY    55  51  86 CALM      29.81F
FARGO          LGT RAIN  58  56  93 N9        29.79F FOG
BUFFALO SD       N/A     52  50  93 N10       29.78F
RAPID CITY     CLOUDY    51  50  96 N9        29.82S
$$

REGIONAL REPORTS...WYOMING/IDAHO/WASHINGTON

CITY           SKY/WX    TMP DP  RH WIND       PRES   REMARKS
GILLETTE       CLOUDY    49  48  97 NW5       29.88F FOG
SHERIDAN       CLOUDY    49  47  93 CALM      29.92S
BUFFALO WY     CLOUDY    46  45  96 NW9       29.93S
CODY           CLOUDY    48  43  81 N5        29.95S
YELLOWSTONE LA   N/A     30  28  92 NW3       30.03F
IDAHO FALLS    PTCLDY    45  44  97 CALM      29.93S
SALMON         CLEAR     45  39  81 CALM      29.93S
BOISE          CLEAR     54  46  74 CALM      29.87S
SPOKANE        MOCLDY    58  49  72 N13       29.83S THUNDER
$$

REGIONAL REPORTS...ALBERTA

CITY           SKY/WX    TMP DP  RH WIND       PRES   REMARKS
EDMONTON       CLEAR     43  34  70 SW2       29.87S
CALGARY        PTCLDY    50  37  62 SE2       29.89F
LETHBRIDGE     CLEAR     41  36  81 S5        29.90S
MEDICINE HAT   CLEAR     45  39  81 S5        29.90F
$$

REGIONAL REPORTS...SASKATCHEWAN

CITY           SKY/WX    TMP DP  RH WIND       PRES   REMARKS
SWIFT CURRENT  PTCLDY    54  34  47 W5        29.90S
REGINA         PTCLDY    48  39  71 S6        29.88F
SASKATOON      PTCLDY    46  41  81 NE5       29.88F
$$


USA.gov is the U.S. government's official web portal to all federal, state and local government web resources and services.